,,,PA_Meas_PMT16A,,PR_Meas_QMR101_102,,RH_Meas_QMH101,,SR_Meas_QMS101,,TA_Meas_QMH101,,GenWind,,GenWind,
date,time,status,PA,status,PR,status,RH,status,SR,status,TA,status,DirAvg,status,SpdAvg,
2010-09-01, 00:00:04,VALID,1009.58,VALID,0,VALID,101.88,VALID,0.105969,VALID,23.9455,VALID,4,VALID,0,
2010-09-01, 00:01:04,VALID,1009.56,VALID,0,VALID,101.987,VALID,0,VALID,23.9668,VALID,4,VALID,0,
2010-09-01, 00:02:04,VALID,1009.56,VALID,0,VALID,102.086,VALID,0,VALID,23.9668,VALID,4,VALID,0,
2010-09-01, 00:03:04,VALID,1009.52,VALID,0,VALID,102.132,VALID,0,VALID,23.926,VALID,4,VALID,0,
2010-09-01, 00:04:04,VALID,1009.52,VALID,0,VALID,102.124,VALID,0,VALID,23.926,VALID,4,VALID,0,
2010-09-01, 00:05:04,VALID,1009.51,VALID,0,VALID,102.139,VALID,0,VALID,23.9668,VALID,4,VALID,0,
2010-09-01, 00:06:04,VALID,1009.53,VALID,0,VALID,102.147,VALID,0,VALID,23.9473,VALID,4,VALID,0,
2010-09-01, 00:07:04,VALID,1009.51,VALID,0,VALID,102.193,VALID,0,VALID,23.9278,VALID,4,VALID,0,
2010-09-01, 00:08:04,VALID,1009.5,VALID,0,VALID,102.223,VALID,0,VALID,23.9473,VALID,4,VALID,0,
2010-09-01, 00:09:04,VALID,1009.49,VALID,0,VALID,102.261,VALID,0,VALID,23.9473,VALID,4,VALID,0,
2010-09-01, 00:10:04,VALID,1009.46,VALID,0,VALID,102.299,VALID,0.105969,VALID,23.926,VALID,4,VALID,0,
2010-09-01, 00:11:04,VALID,1009.5,VALID,0,VALID,102.315,VALID,0,VALID,23.9084,VALID,4,VALID,0,
2010-09-01, 00:12:04,VALID,1009.48,VALID,0,VALID,102.322,VALID,0,VALID,23.9084,VALID,4,VALID,0,
2010-09-01, 00:13:04,VALID,1009.45,VALID,0,VALID,102.368,VALID,0,VALID,23.9084,VALID,4,VALID,0,
2010-09-01, 00:14:04,VALID,1009.41,VALID,0,VALID,102.437,VALID,0,VALID,23.9084,VALID,4,VALID,0,
2010-09-01, 00:15:04,VALID,1009.43,VALID,0,VALID,102.49,VALID,0,VALID,23.9084,VALID,4,VALID,0,
2010-09-01, 00:16:04,VALID,1009.44,VALID,0,VALID,102.513,VALID,0,VALID,23.8871,VALID,4,VALID,0,
2010-09-01, 00:17:04,VALID,1009.4,VALID,0,VALID,102.513,VALID,0,VALID,23.8871,VALID,4,VALID,0,
2010-09-01, 00:18:04,VALID,1009.4,VALID,0,VALID,102.513,VALID,0,VALID,23.9084,VALID,4,VALID,0,
2010-09-01, 00:19:04,VALID,1009.41,VALID,0,VALID,102.513,VALID,0,VALID,23.9084,VALID,4,VALID,0,
2010-09-01, 00:20:04,VALID,1009.39,VALID,0,VALID,102.544,VALID,0.105969,VALID,23.8871,VALID,4,VALID,0,
2010-09-01, 00:21:04,VALID,1009.36,VALID,0,VALID,102.559,VALID,0,VALID,23.9084,VALID,4,VALID,0,
2010-09-01, 00:22:04,VALID,1009.37,VALID,0,VALID,102.551,VALID,0,VALID,23.8871,VALID,4,VALID,0,
2010-09-01, 00:23:04,VALID,1009.38,VALID,0,VALID,102.536,VALID,0,VALID,23.8871,VALID,4,VALID,0,
2010-09-01, 00:24:04,VALID,1009.36,VALID,0,VALID,102.559,VALID,0,VALID,23.9065,VALID,4,VALID,0,
2010-09-01, 00:25:04,VALID,1009.33,VALID,0,VALID,102.589,VALID,0.105969,VALID,23.8871,VALID,4,VALID,0,
2010-09-01, 00:26:04,VALID,1009.3,VALID,0,VALID,102.597,VALID,0,VALID,23.8889,VALID,4,VALID,0,
2010-09-01, 00:27:04,VALID,1009.3,VALID,0,VALID,102.612,VALID,0,VALID,23.8889,VALID,4,VALID,0,
2010-09-01, 00:28:04,VALID,1009.31,VALID,0,VALID,102.635,VALID,0,VALID,23.8676,VALID,4,VALID,0,
2010-09-01, 00:29:04,VALID,1009.3,VALID,0,VALID,102.658,VALID,0,VALID,23.8694,VALID,4,VALID,0,
2010-09-01, 00:30:04,VALID,1009.29,VALID,0,VALID,102.666,VALID,0,VALID,23.8499,VALID,4,VALID,0,
2010-09-01, 00:31:04,VALID,1009.27,VALID,0,VALID,102.681,VALID,0,VALID,23.8499,VALID,4,VALID,0,
2010-09-01, 00:32:04,VALID,1009.27,VALID,0,VALID,102.696,VALID,0,VALID,23.8499,VALID,4,VALID,0,
2010-09-01, 00:33:04,VALID,1009.24,VALID,0,VALID,102.688,VALID,0,VALID,23.8304,VALID,4,VALID,0,
2010-09-01, 00:34:04,VALID,1009.24,VALID,0,VALID,102.719,VALID,0,VALID,23.8091,VALID,4,VALID,0.667969,
2010-09-01, 00:35:04,VALID,1009.24,VALID,0,VALID,102.757,VALID,0,VALID,23.7896,VALID,1,VALID,0.75625,
2010-09-01, 00:36:04,VALID,1009.2,VALID,0,VALID,102.765,VALID,0,VALID,23.8304,VALID,356,VALID,0.720312,
2010-09-01, 00:37:04,VALID,1009.22,VALID,0,VALID,102.742,VALID,0,VALID,23.8091,VALID,356,VALID,0.684766,
2010-09-01, 00:38:04,VALID,1009.21,VALID,0,VALID,102.749,VALID,0,VALID,23.8091,VALID,356,VALID,0.595312,
2010-09-01, 00:39:04,VALID,1009.23,VALID,0,VALID,102.749,VALID,0,VALID,23.8304,VALID,356,VALID,0.614062,
2010-09-01, 00:40:04,VALID,1009.22,VALID,0,VALID,102.749,VALID,0.105969,VALID,23.8091,VALID,345,VALID,0.552344,
2010-09-01, 00:41:04,VALID,1009.22,VALID,0,VALID,102.757,VALID,0.105969,VALID,23.8091,VALID,7,VALID,0.412891,
2010-09-01, 00:42:04,VALID,1009.24,VALID,0,VALID,102.765,VALID,0,VALID,23.8286,VALID,344,VALID,0.344922,
2010-09-01, 00:43:04,VALID,1009.21,VALID,0,VALID,102.765,VALID,0,VALID,23.8286,VALID,344,VALID,0.212891,
2010-09-01, 00:44:04,VALID,1009.21,VALID,0,VALID,102.765,VALID,0,VALID,23.8091,VALID,344,VALID,0.222266,
2010-09-01, 00:45:04,VALID,1009.23,VALID,0,VALID,102.803,VALID,0,VALID,23.8286,VALID,344,VALID,0.327344,
2010-09-01, 00:46:04,VALID,1009.23,VALID,0,VALID,102.826,VALID,0,VALID,23.8286,VALID,344,VALID,0.277734,
2010-09-01, 00:47:04,VALID,1009.21,VALID,0,VALID,102.841,VALID,0,VALID,23.8694,VALID,344,VALID,0.325391,
2010-09-01, 00:48:04,VALID,1009.2,VALID,0,VALID,102.871,VALID,0,VALID,23.8676,VALID,344,VALID,0.374219,
2010-09-01, 00:49:04,VALID,1009.23,VALID,0,VALID,102.871,VALID,0,VALID,23.8694,VALID,344,VALID,0.349219,
2010-09-01, 00:50:04,VALID,1009.21,VALID,0,VALID,102.894,VALID,0,VALID,23.8889,VALID,344,VALID,0.259766,
2010-09-01, 00:51:04,VALID,1009.2,VALID,0,VALID,102.849,VALID,0,VALID,23.8889,VALID,344,VALID,0.379297,
2010-09-01, 00:52:04,VALID,1009.18,VALID,0,VALID,102.879,VALID,0,VALID,23.8694,VALID,344,VALID,0.289453,
2010-09-01, 00:53:04,VALID,1009.16,VALID,0,VALID,102.871,VALID,0,VALID,23.8889,VALID,344,VALID,0.289453,
2010-09-01, 00:54:04,VALID,1009.15,VALID,0,VALID,102.864,VALID,0,VALID,23.8676,VALID,344,VALID,0.295312,
2010-09-01, 00:55:04,VALID,1009.15,VALID,0,VALID,102.849,VALID,0,VALID,23.8889,VALID,344,VALID,0.191797,
2010-09-01, 00:56:04,VALID,1009.14,VALID,0,VALID,102.849,VALID,0,VALID,23.8694,VALID,344,VALID,0.464453,
2010-09-01, 00:57:04,VALID,1009.17,VALID,0,VALID,102.841,VALID,0,VALID,23.8694,VALID,344,VALID,0.390625,
2010-09-01, 00:58:04,VALID,1009.17,VALID,0,VALID,102.826,VALID,0,VALID,23.8091,VALID,344,VALID,0.402734,
2010-09-01, 00:59:04,VALID,1009.17,VALID,0,VALID,102.833,VALID,0,VALID,23.8286,VALID,344,VALID,0.269922,
2010-09-01, 01:00:04,VALID,1009.19,VALID,0,VALID,102.856,VALID,0,VALID,23.8286,VALID,344,VALID,0.154297,
2010-09-01, 01:01:04,VALID,1009.19,VALID,0,VALID,102.864,VALID,0,VALID,23.8091,VALID,344,VALID,0.100391,
2010-09-01, 01:02:04,VALID,1009.21,VALID,0,VALID,102.879,VALID,0,VALID,23.7896,VALID,344,VALID,0,
2010-09-01, 01:03:04,VALID,1009.21,VALID,0,VALID,102.871,VALID,0,VALID,23.7896,VALID,344,VALID,0.109766,
2010-09-01, 01:04:04,VALID,1009.17,VALID,0,VALID,102.91,VALID,0,VALID,23.8109,VALID,344,VALID,0,
2010-09-01, 01:05:04,VALID,1009.17,VALID,0,VALID,102.902,VALID,0,VALID,23.7896,VALID,344,VALID,0,
2010-09-01, 01:06:04,VALID,1009.16,VALID,0,VALID,102.925,VALID,0,VALID,23.8109,VALID,344,VALID,0,
2010-09-01, 01:07:04,VALID,1009.15,VALID,0,VALID,102.932,VALID,0,VALID,23.7914,VALID,344,VALID,0.00429688,
2010-09-01, 01:08:04,VALID,1009.15,VALID,0,VALID,102.925,VALID,0,VALID,23.7896,VALID,24,VALID,0.408203,
2010-09-01, 01:09:04,VALID,1009.13,VALID,0,VALID,102.925,VALID,0,VALID,23.8091,VALID,65,VALID,0.654688,
2010-09-01, 01:10:04,VALID,1009.13,VALID,0,VALID,102.932,VALID,0.105969,VALID,23.8286,VALID,65,VALID,0.423438,
2010-09-01, 01:11:04,VALID,1009.14,VALID,0,VALID,102.917,VALID,0,VALID,23.8694,VALID,65,VALID,0.0902344,
2010-09-01, 01:12:04,VALID,1009.12,VALID,0,VALID,102.902,VALID,0,VALID,23.8694,VALID,65,VALID,0,
2010-09-01, 01:13:04,VALID,1009.13,VALID,0,VALID,102.871,VALID,0.105969,VALID,23.8481,VALID,65,VALID,0,
2010-09-01, 01:14:04,VALID,1009.12,VALID,0,VALID,102.864,VALID,0,VALID,23.8676,VALID,65,VALID,0,
2010-09-01, 01:15:04,VALID,1009.14,VALID,0,VALID,102.864,VALID,0,VALID,23.8871,VALID,65,VALID,0,
2010-09-01, 01:16:04,VALID,1009.14,VALID,0,VALID,102.856,VALID,0,VALID,23.8889,VALID,65,VALID,0,
2010-09-01, 01:17:04,VALID,1009.16,VALID,0,VALID,102.826,VALID,0.105969,VALID,23.9084,VALID,65,VALID,0,
2010-09-01, 01:18:04,VALID,1009.17,VALID,0,VALID,102.78,VALID,0.105969,VALID,23.8871,VALID,65,VALID,0,
2010-09-01, 01:19:04,VALID,1009.17,VALID,0,VALID,102.742,VALID,0,VALID,23.8871,VALID,65,VALID,0,
2010-09-01, 01:20:04,VALID,1009.18,VALID,0,VALID,102.727,VALID,0,VALID,23.8889,VALID,65,VALID,0,
2010-09-01, 01:21:04,VALID,1009.16,VALID,0,VALID,102.666,VALID,0,VALID,23.8694,VALID,65,VALID,0.0136719,
2010-09-01, 01:22:04,VALID,1009.13,VALID,0,VALID,102.666,VALID,0,VALID,23.8481,VALID,65,VALID,0.270703,
2010-09-01, 01:23:04,VALID,1009.12,VALID,0,VALID,102.666,VALID,0.105969,VALID,23.8481,VALID,65,VALID,0.335938,
2010-09-01, 01:24:04,VALID,1009.15,VALID,0,VALID,102.688,VALID,0.105969,VALID,23.8499,VALID,65,VALID,0.250391,
2010-09-01, 01:25:04,VALID,1009.14,VALID,0,VALID,102.711,VALID,0,VALID,23.8286,VALID,65,VALID,0.0472656,
2010-09-01, 01:26:04,VALID,1009.12,VALID,0,VALID,102.704,VALID,0.105969,VALID,23.8286,VALID,65,VALID,0.248437,
2010-09-01, 01:27:04,VALID,1009.13,VALID,0,VALID,102.742,VALID,0,VALID,23.8091,VALID,350,VALID,0.4,
2010-09-01, 01:28:04,VALID,1009.12,VALID,0,VALID,102.765,VALID,0,VALID,23.8304,VALID,350,VALID,0.348047,
2010-09-01, 01:29:04,VALID,1009.08,VALID,0,VALID,102.765,VALID,0,VALID,23.8091,VALID,350,VALID,0.273438,
2010-09-01, 01:30:04,VALID,1009.09,VALID,0,VALID,102.742,VALID,0.105969,VALID,23.7896,VALID,350,VALID,0.252344,
2010-09-01, 01:31:04,VALID,1009.04,VALID,0,VALID,102.711,VALID,0.105969,VALID,23.7896,VALID,350,VALID,0.107813,
2010-09-01, 01:32:04,VALID,1009.05,VALID,0,VALID,102.719,VALID,0,VALID,23.7914,VALID,350,VALID,0,
2010-09-01, 01:33:04,VALID,1009.03,VALID,0,VALID,102.734,VALID,0,VALID,23.772,VALID,350,VALID,0,
2010-09-01, 01:34:04,VALID,1008.99,VALID,0,VALID,102.742,VALID,0,VALID,23.7507,VALID,350,VALID,0,
2010-09-01, 01:35:04,VALID,1008.99,VALID,0,VALID,102.772,VALID,0,VALID,23.772,VALID,350,VALID,0,
2010-09-01, 01:36:04,VALID,1008.97,VALID,0,VALID,102.788,VALID,0,VALID,23.7312,VALID,350,VALID,0,
2010-09-01, 01:37:04,VALID,1008.94,VALID,0,VALID,102.788,VALID,0,VALID,23.733,VALID,350,VALID,0,
2010-09-01, 01:38:04,VALID,1008.94,VALID,0,VALID,102.818,VALID,0,VALID,23.7135,VALID,350,VALID,0,
2010-09-01, 01:39:04,VALID,1008.93,VALID,0,VALID,102.826,VALID,0,VALID,23.6922,VALID,350,VALID,0,
2010-09-01, 01:40:04,VALID,1008.91,VALID,0,VALID,102.841,VALID,0,VALID,23.7135,VALID,350,VALID,0,
2010-09-01, 01:41:04,VALID,1008.91,VALID,0,VALID,102.864,VALID,0,VALID,23.7135,VALID,350,VALID,0,
2010-09-01, 01:42:04,VALID,1008.94,VALID,0,VALID,102.879,VALID,0.105969,VALID,23.6922,VALID,350,VALID,0,
2010-09-01, 01:43:04,VALID,1008.93,VALID,0,VALID,102.91,VALID,0,VALID,23.7135,VALID,350,VALID,0,
2010-09-01, 01:44:04,VALID,1008.91,VALID,0,VALID,102.925,VALID,0,VALID,23.7135,VALID,350,VALID,0,
2010-09-01, 01:45:04,VALID,1008.94,VALID,0,VALID,102.925,VALID,0,VALID,23.7117,VALID,350,VALID,0,
2010-09-01, 01:46:04,VALID,1008.91,VALID,0,VALID,102.917,VALID,0.105969,VALID,23.733,VALID,350,VALID,0,
2010-09-01, 01:47:04,VALID,1008.9,VALID,0,VALID,102.948,VALID,0,VALID,23.733,VALID,350,VALID,0,
2010-09-01, 01:48:04,VALID,1008.88,VALID,0,VALID,102.948,VALID,0.105969,VALID,23.733,VALID,350,VALID,0,
2010-09-01, 01:49:04,VALID,1008.87,VALID,0,VALID,102.94,VALID,0,VALID,23.7525,VALID,350,VALID,0,
2010-09-01, 01:50:04,VALID,1008.87,VALID,0,VALID,102.948,VALID,0,VALID,23.7312,VALID,350,VALID,0,
2010-09-01, 01:51:04,VALID,1008.88,VALID,0,VALID,102.94,VALID,0,VALID,23.7312,VALID,350,VALID,0,
2010-09-01, 01:52:04,VALID,1008.83,VALID,0,VALID,102.94,VALID,0.105969,VALID,23.7507,VALID,350,VALID,0,
2010-09-01, 01:53:04,VALID,1008.83,VALID,0,VALID,102.955,VALID,0,VALID,23.7507,VALID,350,VALID,0,
2010-09-01, 01:54:04,VALID,1008.85,VALID,0,VALID,102.955,VALID,0.105969,VALID,23.7507,VALID,350,VALID,0,
2010-09-01, 01:55:04,VALID,1008.85,VALID,0,VALID,102.986,VALID,0.105969,VALID,23.7507,VALID,350,VALID,0,
2010-09-01, 01:56:04,VALID,1008.85,VALID,0,VALID,102.986,VALID,0,VALID,23.7507,VALID,350,VALID,0,
2010-09-01, 01:57:04,VALID,1008.83,VALID,0,VALID,103.024,VALID,0.105969,VALID,23.7507,VALID,350,VALID,0,
2010-09-01, 01:58:04,VALID,1008.83,VALID,0,VALID,103.016,VALID,0.105969,VALID,23.7914,VALID,350,VALID,0,
2010-09-01, 01:59:04,VALID,1008.82,VALID,0,VALID,103.047,VALID,0,VALID,23.772,VALID,350,VALID,0,
2010-09-01, 02:00:04,VALID,1008.8,VALID,0,VALID,103.039,VALID,0,VALID,23.7914,VALID,350,VALID,0,
2010-09-01, 02:01:04,VALID,1008.77,VALID,0,VALID,103.032,VALID,0.105969,VALID,23.7701,VALID,350,VALID,0,
2010-09-01, 02:02:04,VALID,1008.79,VALID,0,VALID,103.032,VALID,0.105969,VALID,23.7914,VALID,350,VALID,0,
2010-09-01, 02:03:04,VALID,1008.77,VALID,0,VALID,103.024,VALID,0.105969,VALID,23.7701,VALID,350,VALID,0.00546875,
2010-09-01, 02:04:04,VALID,1008.77,VALID,0,VALID,103.024,VALID,0.105969,VALID,23.7701,VALID,350,VALID,0.00234375,
2010-09-01, 02:05:04,VALID,1008.77,VALID,0,VALID,103.024,VALID,0.105969,VALID,23.7914,VALID,350,VALID,0,
2010-09-01, 02:06:04,VALID,1008.77,VALID,0,VALID,103.016,VALID,0,VALID,23.772,VALID,350,VALID,0,
2010-09-01, 02:07:04,VALID,1008.76,VALID,0,VALID,103.024,VALID,0,VALID,23.772,VALID,350,VALID,0,
2010-09-01, 02:08:04,VALID,1008.76,VALID,0,VALID,103.024,VALID,0,VALID,23.772,VALID,350,VALID,0,
2010-09-01, 02:09:04,VALID,1008.76,VALID,0,VALID,103.062,VALID,0,VALID,23.7914,VALID,350,VALID,0,
2010-09-01, 02:10:04,VALID,1008.76,VALID,0,VALID,103.085,VALID,0,VALID,23.8127,VALID,350,VALID,0,
2010-09-01, 02:11:04,VALID,1008.77,VALID,0,VALID,103.1,VALID,0,VALID,23.8109,VALID,350,VALID,0,
2010-09-01, 02:12:04,VALID,1008.76,VALID,0,VALID,103.131,VALID,0,VALID,23.7914,VALID,350,VALID,0.275781,
2010-09-01, 02:13:04,VALID,1008.81,VALID,0,VALID,103.131,VALID,0,VALID,23.8109,VALID,350,VALID,0.028125,
2010-09-01, 02:14:04,VALID,1008.78,VALID,0,VALID,103.123,VALID,0,VALID,23.8109,VALID,350,VALID,0.333594,
2010-09-01, 02:15:04,VALID,1008.78,VALID,0,VALID,103.131,VALID,0,VALID,23.7914,VALID,350,VALID,0.4625,
2010-09-01, 02:16:04,VALID,1008.79,VALID,0,VALID,103.154,VALID,0,VALID,23.772,VALID,350,VALID,0.452734,
2010-09-01, 02:17:04,VALID,1008.79,VALID,0,VALID,103.161,VALID,0,VALID,23.7525,VALID,350,VALID,0.464844,
2010-09-01, 02:18:04,VALID,1008.8,VALID,0,VALID,103.138,VALID,0,VALID,23.733,VALID,350,VALID,0.349219,
2010-09-01, 02:19:04,VALID,1008.78,VALID,0,VALID,103.146,VALID,0,VALID,23.7135,VALID,350,VALID,0.464844,
2010-09-01, 02:20:04,VALID,1008.79,VALID,0,VALID,103.161,VALID,0,VALID,23.694,VALID,350,VALID,0.410937,
2010-09-01, 02:21:04,VALID,1008.8,VALID,0,VALID,103.131,VALID,0.105969,VALID,23.6727,VALID,350,VALID,0.448828,
2010-09-01, 02:22:04,VALID,1008.79,VALID,0,VALID,103.138,VALID,0.105969,VALID,23.6532,VALID,350,VALID,0.523438,
2010-09-01, 02:23:04,VALID,1008.8,VALID,0,VALID,103.146,VALID,0.105969,VALID,23.6338,VALID,350,VALID,0.471484,
2010-09-01, 02:24:04,VALID,1008.79,VALID,0,VALID,103.115,VALID,0.105969,VALID,23.6338,VALID,350,VALID,0.394531,
2010-09-01, 02:25:04,VALID,1008.8,VALID,0,VALID,103.123,VALID,0.105969,VALID,23.6143,VALID,6,VALID,0.503125,
2010-09-01, 02:26:04,VALID,1008.8,VALID,0,VALID,103.108,VALID,0.105969,VALID,23.6125,VALID,26,VALID,0.3625,
2010-09-01, 02:27:04,VALID,1008.79,VALID,0,VALID,103.093,VALID,0.105969,VALID,23.6143,VALID,26,VALID,0.283984,
2010-09-01, 02:28:04,VALID,1008.78,VALID,0,VALID,103.077,VALID,0.105969,VALID,23.5948,VALID,26,VALID,0.319141,
2010-09-01, 02:29:04,VALID,1008.81,VALID,0,VALID,103.077,VALID,0.105969,VALID,23.5558,VALID,26,VALID,0.189063,
2010-09-01, 02:30:04,VALID,1008.82,VALID,0,VALID,103.093,VALID,0.105969,VALID,23.5558,VALID,26,VALID,0.264062,
2010-09-01, 02:31:04,VALID,1008.81,VALID,0,VALID,103.062,VALID,0.105969,VALID,23.5558,VALID,32,VALID,0.495313,
2010-09-01, 02:32:04,VALID,1008.84,VALID,0,VALID,103.093,VALID,0.105969,VALID,23.5771,VALID,38,VALID,0.277344,
2010-09-01, 02:33:04,VALID,1008.84,VALID,0,VALID,103.108,VALID,0.105969,VALID,23.5363,VALID,38,VALID,0.509375,
2010-09-01, 02:34:04,VALID,1008.83,VALID,0,VALID,103.123,VALID,0.105969,VALID,23.5363,VALID,38,VALID,0.2875,
2010-09-01, 02:35:04,VALID,1008.82,VALID,0,VALID,103.138,VALID,0.105969,VALID,23.5363,VALID,38,VALID,0,
2010-09-01, 02:36:04,VALID,1008.81,VALID,0,VALID,103.154,VALID,0,VALID,23.5363,VALID,38,VALID,0.1625,
2010-09-01, 02:37:04,VALID,1008.81,VALID,0,VALID,103.146,VALID,0.105969,VALID,23.5363,VALID,38,VALID,0.179297,
2010-09-01, 02:38:04,VALID,1008.79,VALID,0,VALID,103.161,VALID,0,VALID,23.5363,VALID,38,VALID,0.214062,
2010-09-01, 02:39:04,VALID,1008.76,VALID,0,VALID,103.184,VALID,0.105969,VALID,23.5558,VALID,346,VALID,0.591797,
2010-09-01, 02:40:04,VALID,1008.74,VALID,0,VALID,103.192,VALID,0.105969,VALID,23.5558,VALID,5,VALID,0.397266,
2010-09-01, 02:41:04,VALID,1008.74,VALID,0,VALID,103.184,VALID,0.105969,VALID,23.5753,VALID,347,VALID,0.599609,
2010-09-01, 02:42:04,VALID,1008.72,VALID,0,VALID,103.192,VALID,0.105969,VALID,23.5753,VALID,347,VALID,0.281641,
2010-09-01, 02:43:04,VALID,1008.69,VALID,0,VALID,103.199,VALID,0,VALID,23.5948,VALID,347,VALID,0.202344,
2010-09-01, 02:44:04,VALID,1008.65,VALID,0,VALID,103.199,VALID,0.105969,VALID,23.5948,VALID,347,VALID,0.248437,
2010-09-01, 02:45:04,VALID,1008.61,VALID,0,VALID,103.192,VALID,0.105969,VALID,23.5948,VALID,347,VALID,0.175,
2010-09-01, 02:46:04,VALID,1008.6,VALID,0,VALID,103.192,VALID,0.105969,VALID,23.6143,VALID,347,VALID,0.221094,
2010-09-01, 02:47:04,VALID,1008.58,VALID,0,VALID,103.192,VALID,0.105969,VALID,23.6143,VALID,347,VALID,0,
2010-09-01, 02:48:04,VALID,1008.56,VALID,0,VALID,103.199,VALID,0.105969,VALID,23.6143,VALID,347,VALID,0.179297,
2010-09-01, 02:49:04,VALID,1008.55,VALID,0,VALID,103.192,VALID,0.105969,VALID,23.6143,VALID,347,VALID,0,
2010-09-01, 02:50:04,VALID,1008.55,VALID,0,VALID,103.199,VALID,0.105969,VALID,23.6143,VALID,347,VALID,0,
2010-09-01, 02:51:04,VALID,1008.53,VALID,0,VALID,103.199,VALID,0,VALID,23.6161,VALID,347,VALID,0,
2010-09-01, 02:52:04,VALID,1008.54,VALID,0,VALID,103.207,VALID,0,VALID,23.6161,VALID,347,VALID,0.271484,
2010-09-01, 02:53:04,VALID,1008.5,VALID,0,VALID,103.207,VALID,0,VALID,23.6161,VALID,347,VALID,0.0550781,
2010-09-01, 02:54:04,VALID,1008.48,VALID,0,VALID,103.199,VALID,0,VALID,23.6161,VALID,347,VALID,0.301172,
2010-09-01, 02:55:04,VALID,1008.46,VALID,0,VALID,103.199,VALID,0,VALID,23.6161,VALID,347,VALID,0.188281,
2010-09-01, 02:56:04,VALID,1008.44,VALID,0,VALID,103.176,VALID,0,VALID,23.6373,VALID,347,VALID,0.119922,
2010-09-01, 02:57:04,VALID,1008.41,VALID,0,VALID,103.199,VALID,0,VALID,23.6161,VALID,347,VALID,0.0105469,
2010-09-01, 02:58:04,VALID,1008.38,VALID,0,VALID,103.176,VALID,0,VALID,23.6356,VALID,347,VALID,0,
2010-09-01, 02:59:04,VALID,1008.37,VALID,0,VALID,103.207,VALID,0,VALID,23.6356,VALID,347,VALID,0.0476562,
2010-09-01, 03:00:04,VALID,1008.37,VALID,0,VALID,103.192,VALID,0,VALID,23.6373,VALID,347,VALID,0.108984,
2010-09-01, 03:01:04,VALID,1008.4,VALID,0,VALID,103.184,VALID,0,VALID,23.6356,VALID,347,VALID,0.117578,
2010-09-01, 03:02:04,VALID,1008.38,VALID,0,VALID,103.176,VALID,0,VALID,23.6356,VALID,347,VALID,0.0246094,
2010-09-01, 03:03:04,VALID,1008.39,VALID,0,VALID,103.169,VALID,0,VALID,23.6373,VALID,347,VALID,0.18125,
2010-09-01, 03:04:04,VALID,1008.41,VALID,0,VALID,103.131,VALID,0,VALID,23.6356,VALID,347,VALID,0.148828,
2010-09-01, 03:05:04,VALID,1008.4,VALID,0,VALID,103.131,VALID,0,VALID,23.6356,VALID,347,VALID,0,
2010-09-01, 03:06:04,VALID,1008.45,VALID,0,VALID,103.138,VALID,0,VALID,23.6143,VALID,347,VALID,0,
2010-09-01, 03:07:04,VALID,1008.42,VALID,0,VALID,103.138,VALID,0,VALID,23.6338,VALID,347,VALID,0,
2010-09-01, 03:08:04,VALID,1008.45,VALID,0,VALID,103.123,VALID,0.105969,VALID,23.632,VALID,347,VALID,0,
2010-09-01, 03:09:04,VALID,1008.45,VALID,0,VALID,103.131,VALID,0.105969,VALID,23.6338,VALID,347,VALID,0,
2010-09-01, 03:10:04,VALID,1008.45,VALID,0,VALID,103.123,VALID,0,VALID,23.6143,VALID,347,VALID,0.0277344,
2010-09-01, 03:11:04,VALID,1008.47,VALID,0,VALID,103.123,VALID,0.105969,VALID,23.6143,VALID,347,VALID,0,
2010-09-01, 03:12:04,VALID,1008.48,VALID,0,VALID,103.1,VALID,0,VALID,23.6356,VALID,347,VALID,0,
2010-09-01, 03:13:04,VALID,1008.5,VALID,0,VALID,103.108,VALID,0,VALID,23.6356,VALID,347,VALID,0.000390625,
2010-09-01, 03:14:04,VALID,1008.51,VALID,0,VALID,103.108,VALID,0.105969,VALID,23.6143,VALID,347,VALID,0,
2010-09-01, 03:15:04,VALID,1008.51,VALID,0,VALID,103.108,VALID,0.105969,VALID,23.5948,VALID,347,VALID,0,
2010-09-01, 03:16:04,VALID,1008.51,VALID,0,VALID,103.108,VALID,0,VALID,23.6143,VALID,347,VALID,0,
2010-09-01, 03:17:04,VALID,1008.49,VALID,0,VALID,103.123,VALID,0.105969,VALID,23.6338,VALID,347,VALID,0,
2010-09-01, 03:18:04,VALID,1008.47,VALID,0,VALID,103.123,VALID,0.105969,VALID,23.6338,VALID,347,VALID,0,
2010-09-01, 03:19:04,VALID,1008.48,VALID,0,VALID,103.108,VALID,0.105969,VALID,23.6338,VALID,347,VALID,0,
2010-09-01, 03:20:04,VALID,1008.46,VALID,0,VALID,103.115,VALID,0.105969,VALID,23.655,VALID,347,VALID,0.192188,
2010-09-01, 03:21:04,VALID,1008.46,VALID,0,VALID,103.108,VALID,0,VALID,23.6338,VALID,347,VALID,0,
2010-09-01, 03:22:04,VALID,1008.47,VALID,0,VALID,103.115,VALID,0,VALID,23.6338,VALID,347,VALID,0,
2010-09-01, 03:23:04,VALID,1008.47,VALID,0,VALID,103.115,VALID,0.105969,VALID,23.6338,VALID,347,VALID,0,
2010-09-01, 03:24:04,VALID,1008.46,VALID,0,VALID,103.123,VALID,0,VALID,23.6338,VALID,347,VALID,0,
2010-09-01, 03:25:04,VALID,1008.47,VALID,0,VALID,103.146,VALID,0,VALID,23.6532,VALID,347,VALID,0,
2010-09-01, 03:26:04,VALID,1008.46,VALID,0,VALID,103.131,VALID,0,VALID,23.6532,VALID,347,VALID,0,
2010-09-01, 03:27:04,VALID,1008.45,VALID,0,VALID,103.131,VALID,0.105969,VALID,23.6532,VALID,347,VALID,0,
2010-09-01, 03:28:04,VALID,1008.46,VALID,0,VALID,103.146,VALID,0,VALID,23.6532,VALID,347,VALID,0,
2010-09-01, 03:29:04,VALID,1008.45,VALID,0,VALID,103.169,VALID,0.105969,VALID,23.6532,VALID,347,VALID,0,
2010-09-01, 03:30:04,VALID,1008.47,VALID,0,VALID,103.138,VALID,0,VALID,23.694,VALID,347,VALID,0,
2010-09-01, 03:31:04,VALID,1008.47,VALID,0,VALID,103.146,VALID,0,VALID,23.6745,VALID,347,VALID,0,
2010-09-01, 03:32:04,VALID,1008.48,VALID,0,VALID,103.146,VALID,0,VALID,23.6745,VALID,347,VALID,0,
2010-09-01, 03:33:04,VALID,1008.5,VALID,0,VALID,103.146,VALID,0,VALID,23.6745,VALID,347,VALID,0.105859,
2010-09-01, 03:34:04,VALID,1008.56,VALID,0,VALID,103.123,VALID,0,VALID,23.655,VALID,347,VALID,0.154687,
2010-09-01, 03:35:04,VALID,1008.57,VALID,0,VALID,103.138,VALID,0,VALID,23.655,VALID,347,VALID,0.236719,
2010-09-01, 03:36:04,VALID,1008.59,VALID,0,VALID,103.146,VALID,0.105969,VALID,23.6338,VALID,347,VALID,0.177344,
2010-09-01, 03:37:04,VALID,1008.57,VALID,0,VALID,103.154,VALID,0,VALID,23.6356,VALID,347,VALID,0.149219,
2010-09-01, 03:38:04,VALID,1008.59,VALID,0,VALID,103.161,VALID,0.105969,VALID,23.6143,VALID,347,VALID,0.187109,
2010-09-01, 03:39:04,VALID,1008.55,VALID,0,VALID,103.184,VALID,0,VALID,23.6338,VALID,347,VALID,0,
2010-09-01, 03:40:04,VALID,1008.56,VALID,0,VALID,103.176,VALID,0.105969,VALID,23.6143,VALID,347,VALID,0,
2010-09-01, 03:41:04,VALID,1008.56,VALID,0,VALID,103.169,VALID,0,VALID,23.6143,VALID,347,VALID,0,
2010-09-01, 03:42:04,VALID,1008.54,VALID,0,VALID,103.176,VALID,0.105969,VALID,23.6356,VALID,347,VALID,0,
2010-09-01, 03:43:04,VALID,1008.55,VALID,0,VALID,103.184,VALID,0,VALID,23.6161,VALID,347,VALID,0.0105469,
2010-09-01, 03:44:04,VALID,1008.53,VALID,0,VALID,103.161,VALID,0,VALID,23.655,VALID,42,VALID,0.458984,
2010-09-01, 03:45:04,VALID,1008.53,VALID,0,VALID,103.192,VALID,0,VALID,23.6745,VALID,42,VALID,0.321875,
2010-09-01, 03:46:04,VALID,1008.57,VALID,0,VALID,103.215,VALID,0,VALID,23.694,VALID,44,VALID,0.757422,
2010-09-01, 03:47:04,VALID,1008.57,VALID,0,VALID,103.199,VALID,0,VALID,23.7135,VALID,45,VALID,0.313672,
2010-09-01, 03:48:04,VALID,1008.59,VALID,0,VALID,103.222,VALID,0,VALID,23.7117,VALID,45,VALID,0.365234,